Dewpoint
19 20 21 20 19 19 12 15 11 6 11 12 14 17 19 22 21 21 21 22 22 22 24 26 25 26 27 29 28 28 28 29 32 30 31 32 33 32 33 33 32 32 32 33
21 24 22 20 21 21 19 19 18 17 14 16 18 20 21 19 20 20 20 22 22 22 25 25 24 25 27 27 27 28 27 27 31 29 29 31 30 32 32 32 32 32 32 32
18 24 22 13 17 21 19 17 15 12 13 16 20 17 17 18 19 20 21 22 22 22 25 24 23 25 25 26 27 27 27 27 28 28 27 29 29 29 31 31 32 31 31 31
20 20 -4 12 21 22 20 19 19 19 20 22 23 18 17 19 20 19 21 23 22 23 24 23 23 24 25 26 26 27 28 27 25 25 26 27 28 28 29 30 31 30 30 30
11 16 12 16 23 20 18 14 19 21 22 24 24 17 16 17 18 21 23 24 22 24 23 23 23 25 25 26 27 28 27 26 24 24 25 26 26 28 28 29 29 29 29 29
15 8 7 10 18 26 24 13 20 25 23 22 21 19 17 18 19 23 24 23 23 23 23 24 25 26 27 27 28 27 27 24 23 23 25 25 26 28 30 30 29 29 29 29
12 11 12 14 17 24 11 4 16 22 22 22 21 20 18 19 21 24 22 21 21 22 25 26 27 27 27 28 28 28 27 23 22 22 24 25 27 28 29 30 30 29 29 29
12 10 3 17 22 12 14 15 16 18 20 21 23 21 19 22 24 22 21 21 23 24 26 27 28 28 26 27 29 28 27 22 22 24 25 26 27 28 28 28 29 29 29 28
9 6 15 18 15 17 18 15 16 18 19 20 20 20 21 23 24 23 19 23 25 26 26 27 28 28 24 26 28 27 22 22 22 24 25 25 27 27 27 28 28 29 28 26
12 14 16 17 19 20 20 19 20 20 20 21 20 21 23 24 25 20 21 24 26 26 27 27 28 28 26 24 24 24 22 24 23 22 24 26 26 27 26 28 28 28 27 26
16 18 19 20 21 19 22 24 19 19 20 20 21 23 24 24 21 19 24 26 25 26 26 27 27 27 26 25 25 25 26 24 24 26 26 26 25 26 27 28 28 28 28 28
14 19 18 17 18 23 22 19 19 20 21 22 22 23 24 21 20 20 26 26 23 26 25 27 26 26 26 26 27 26 26 25 26 26 26 24 23 25 25 26 27 26 28 26
16 19 20 20 22 24 21 20 21 22 22 23 25 24 22 20 18 25 26 24 24 25 26 27 25 25 26 26 27 27 26 25 23 25 24 24 24 25 24 25 26 26 26 26
21 22 20 22 19 24 21 22 25 23 24 24 24 23 21 17 19 25 22 23 25 26 26 25 25 24 26 26 27 26 24 23 24 23 25 25 25 25 25 24 24 24 25 26
23 24 20 20 20 22 23 23 22 22 21 21 22 21 18 13 18 24 23 24 26 27 24 24 24 24 26 27 26 24 23 25 25 24 24 25 24 24 24 24 24 24 23 24
24 19 18 19 20 22 22 21 20 20 20 19 20 21 18 18 22 22 23 24 26 25 24 24 24 25 26 26 25 24 24 25 23 23 22 23 23 23 23 23 23 22 22 23
17 17 20 19 20 21 21 21 20 20 20 20 20 20 19 20 21 21 22 23 26 25 25 24 24 25 25 27 25 25 24 23 22 23 23 23 23 23 22 21 21 21 22 23
17 18 19 19 21 22 22 21 21 21 19 20 21 19 18 16 11 17 21 22 25 24 24 24 24 24 25 26 26 24 24 23 21 21 22 23 23 22 21 20 20 21 21 21
21 20 22 22 23 23 22 22 22 21 21 22 20 17 15 13 16 20 22 20 23 24 24 24 24 24 24 23 25 27 25 24 23 20 21 20 21 21 21 20 20 20 21 20
23 24 25 25 25 23 22 23 23 22 22 22 19 16 13 14 18 21 21 20 22 25 25 24 24 26 26 23 24 27 26 24 24 23 20 19 19 19 20 19 18 19 20 20
25 26 25 25 24 24 23 23 23 22 22 22 20 19 19 16 16 20 21 20 24 26 25 24 24 26 27 25 25 26 24 20 20 21 22 19 17 17 17 17 17 18 17 18
27 26 25 25 24 24 24 25 24 23 23 22 21 22 19 15 16 21 22 22 25 26 24 23 25 27 25 24 25 21 20 18 18 18 19 20 17 16 16 15 15 17 16 16
27 27 26 25 25 25 27 26 25 24 23 22 23 22 20 19 20 21 18 22 25 24 23 24 26 25 23 23 20 17 16 15 17 16 16 17 15 14 15 14 13 13 15 14
27 27 27 28 28 28 27 28 28 27 25 25 24 23 22 21 21 24 24 24 24 23 21 24 24 23 20 18 17 18 16 15 15 15 16 15 12 12 12 13 12 12 12 12
28 28 30 30 30 30 30 30 30 30 29 28 26 25 23 24 23 23 24 24 23 21 21 22 22 20 18 17 16 18 15 14 12 11 10 11 10 9 9 11 10 9 8 8
29 29 29 30 30 29 29 29 29 29 29 29 28 27 27 26 25 24 24 23 22 20 20 19 18 18 18 17 17 16 14 14 10 8 7 7 7 7 7 7 7 6 5 5
29 30 29 29 29 29 29 29 29 28 29 29 29 28 28 27 26 25 24 23 21 19 17 16 16 17 16 15 15 13 13 10 8 6 4 4 4 4 4 4 4 3 3 3
Wind_Speed
5 9 5 4 5 3 1 3 4 4 9 19 17 14 13 11 13 14 16 16 16 15 14 14 18 18 18 17 20 21 20 21 20 23 20 20 20 22 21 21 23 24 28 29
2 6 1 7 8 7 5 4 10 9 16 9 12 13 13 14 13 14 15 16 15 13 12 13 17 18 18 17 18 18 19 21 20 22 21 21 21 21 23 21 23 25 29 28
1 6 7 5 6 11 5 6 5 10 13 5 17 14 13 12 13 15 14 13 12 11 8 12 15 16 18 19 19 18 18 20 20 22 21 21 21 19 20 22 20 20 18 24
1 4 4 3 2 4 11 8 12 14 18 18 16 14 14 12 14 15 14 12 10 9 8 12 14 16 17 17 18 19 18 19 20 19 21 22 18 19 19 17 18 18 20 19
0 3 8 6 4 6 6 11 11 16 18 18 10 7 15 10 7 12 10 9 6 3 7 12 15 17 16 17 17 18 19 19 20 22 21 19 22 18 16 17 17 19 18 20
3 2 4 5 4 6 5 8 5 9 14 17 2 12 18 11 9 13 8 6 7 7 9 13 15 15 16 17 16 18 18 19 21 22 22 22 21 20 20 20 19 18 20 21
7 5 9 9 5 9 1 5 7 10 14 12 9 14 7 11 13 7 7 9 9 9 9 13 14 14 14 15 17 17 17 18 19 22 22 23 23 21 21 21 20 19 19 19
5 5 8 9 8 6 9 5 9 9 11 11 14 12 11 12 8 7 8 10 11 9 9 12 13 14 13 16 17 18 18 18 18 21 21 21 22 22 22 21 19 18 19 18
13 9 7 15 12 17 6 9 8 5 9 8 8 6 7 6 6 7 9 9 9 9 9 10 12 11 13 14 16 18 18 18 18 18 18 18 19 20 20 19 18 18 16 16
5 8 17 14 14 13 11 15 10 8 5 4 6 3 2 4 4 6 8 9 8 9 9 10 11 11 10 12 12 15 16 18 19 19 19 16 15 15 16 16 18 16 17 18
8 10 7 12 13 15 12 10 8 4 4 4 4 2 2 2 3 5 6 7 8 7 8 9 11 11 12 12 12 15 14 14 16 18 18 16 14 15 15 14 16 16 15 15
13 12 8 6 7 6 12 14 12 11 6 4 5 4 2 1 3 4 5 6 8 6 7 8 10 10 11 12 13 13 12 13 14 15 16 17 17 13 12 16 19 21 20 18
12 9 10 10 6 8 14 12 11 10 9 9 5 4 2 1 2 2 3 5 6 6 7 8 9 10 12 13 13 14 13 14 14 13 13 15 17 17 18 15 15 18 23 23
10 7 4 6 7 13 11 10 11 10 9 8 7 4 2 0 1 1 3 5 5 5 7 8 9 10 11 12 12 12 13 14 13 14 12 13 14 16 16 17 19 19 21 22
15 10 9 2 7 11 10 16 16 14 10 8 6 5 3 3 3 4 3 4 4 2 7 8 10 13 12 11 11 12 14 14 12 13 13 13 13 14 15 16 16 16 16 17
15 8 9 10 13 14 16 15 15 13 11 8 8 7 6 5 5 5 3 2 3 5 6 6 8 11 10 11 10 11 13 15 14 13 14 14 13 15 16 17 17 17 17 18
14 9 7 8 14 17 21 18 16 15 12 11 10 7 7 6 6 5 4 3 4 3 4 4 6 8 10 10 8 10 11 11 14 12 13 14 15 15 16 15 16 17 17 17
18 17 17 14 18 17 14 15 13 12 13 12 10 9 9 9 7 6 5 4 3 4 4 4 5 5 8 10 10 9 8 9 12 12 13 14 14 14 15 16 16 16 17 18
12 11 11 12 15 18 17 16 14 13 11 10 12 13 10 9 7 6 4 5 5 6 5 4 8 8 5 10 11 8 7 6 7 10 11 14 14 14 14 16 15 15 17 18
10 8 8 10 12 16 15 13 12 12 12 12 10 9 9 10 10 8 5 8 8 7 3 5 7 9 6 7 11 8 9 10 9 5 8 11 12 14 14 15 15 16 16 16
12 11 13 15 15 13 14 14 15 16 15 14 15 14 12 9 9 8 7 9 5 7 5 4 5 6 6 7 8 8 9 11 11 10 6 8 10 12 13 14 14 13 16 16
12 14 15 15 14 16 12 10 11 11 11 15 15 10 8 10 9 10 12 10 3 6 4 3 3 4 4 5 6 7 7 9 10 10 10 11 11 12 12 13 13 13 13 14
13 12 12 12 14 11 6 10 13 13 14 15 17 16 16 13 12 10 11 7 9 7 4 3 2 2 4 4 4 4 5 7 9 10 10 10 11 11 10 12 12 13 13 14
11 10 10 8 6 7 10 10 9 11 13 12 15 16 13 12 12 11 8 3 8 7 5 4 2 1 1 1 3 3 4 6 7 8 8 8 10 10 11 10 13 12 11 13
11 10 9 9 10 13 11 7 6 7 9 11 12 12 12 11 11 3 10 10 10 7 6 4 3 2 2 3 3 1 2 3 5 7 9 9 10 11 12 11 12 13 13 13
12 12 10 11 11 8 7 6 7 5 6 10 9 9 10 8 9 7 7 10 9 7 5 4 2 1 1 1 2 1 1 2 5 7 7 8 9 10 11 11 12 14 14 14
5 6 6 6 6 7 8 8 7 7 6 8 8 5 10 10 9 9 9 9 9 7 5 4 3 2 1 1 2 2 2 2 3 5 6 7 8 9 11 12 12 13 13 14
Wind_Direction
259 274 232 253 252 188 196 193 230 294 276 294 298 305 300 300 304 316 319 325 327 333 340 347 349 343 341 345 347 345 348 347 347 352 351 346 346 346 346 358 7 6 2 358
74 47 18 271 258 230 223 204 252 268 291 264 279 296 288 296 309 312 315 324 324 331 337 348 345 340 337 341 340 341 348 351 352 354 352 349 352 348 349 354 5 3 8 357
34 350 329 311 278 218 203 206 216 270 279 292 307 304 305 294 306 307 310 321 314 322 332 343 341 337 338 338 333 338 342 351 356 356 356 353 350 353 352 358 0 359 355 1
71 328 1 257 225 231 222 245 228 259 269 276 275 284 292 283 286 297 306 314 313 331 344 342 340 342 337 339 339 341 349 355 0 357 351 349 353 353 358 359 2 359 3 351
182 225 288 299 216 197 200 288 257 249 264 271 278 303 300 304 280 290 305 318 327 357 342 335 344 344 345 344 342 348 353 356 357 355 351 354 349 350 352 358 5 359 354 354
148 314 267 239 229 164 125 293 252 226 252 265 296 295 294 299 303 325 1 19 34 10 356 359 349 352 354 348 348 355 350 353 355 353 349 348 348 353 347 356 355 356 346 352
189 230 274 243 162 142 183 278 221 217 244 266 261 255 274 308 324 10 60 46 27 26 20 1 358 357 356 349 352 345 341 350 354 356 350 346 347 351 350 356 350 349 343 342
136 204 270 177 129 192 222 236 241 249 257 262 260 279 287 313 357 45 38 27 27 31 21 9 5 359 356 357 343 343 337 350 352 349 344 344 348 352 354 357 349 351 346 340
192 219 224 191 204 217 206 247 254 253 264 259 264 273 317 338 25 32 28 32 31 36 27 15 5 359 360 355 351 349 347 346 348 343 337 343 352 352 353 351 349 347 347 346
173 230 230 228 239 252 239 250 259 239 251 222 246 296 353 50 25 12 22 30 27 24 17 7 355 354 358 358 355 343 348 344 340 343 345 356 356 351 353 349 350 353 351 354
237 257 261 258 235 244 255 239 215 210 197 192 175 104 96 23 359 6 20 25 17 13 5 358 352 357 358 358 348 334 328 327 333 335 342 351 357 347 352 348 352 348 352 353
223 202 200 224 235 234 210 203 199 176 149 117 135 147 132 22 0 11 13 6 5 4 356 353 359 2 354 345 333 341 336 338 341 342 345 352 349 346 345 339 345 350 351 4
220 201 208 250 255 223 203 197 180 173 162 152 134 140 143 331 358 10 7 352 353 343 347 360 4 0 347 339 335 343 347 355 355 351 355 346 342 345 344 346 343 353 352 2
204 153 218 215 226 191 177 167 148 144 139 142 148 148 151 271 293 259 325 325 322 339 12 8 7 2 346 339 344 357 359 351 352 1 355 348 346 346 345 346 346 352 354 356
211 216 230 198 152 160 147 146 151 156 154 156 171 180 188 235 238 231 279 313 323 354 13 13 10 2 354 352 5 6 357 358 355 1 2 359 355 346 341 342 348 353 354 356
219 217 199 207 179 165 159 163 166 172 177 186 195 201 214 229 212 220 260 311 343 331 340 360 9 354 357 9 16 4 357 1 360 359 0 358 356 355 354 354 355 354 0 358
153 163 169 181 183 181 188 184 180 185 189 196 207 204 201 216 222 231 251 276 286 249 316 333 342 350 2 7 19 2 3 2 1 357 356 352 355 357 357 1 356 353 354 352
181 183 189 190 192 189 186 185 188 190 198 203 195 196 211 216 240 232 240 278 268 261 296 314 320 335 3 5 353 353 8 10 6 358 354 350 349 359 360 356 357 355 351 352
196 199 203 201 192 186 179 186 194 199 195 193 188 210 221 235 236 238 237 263 259 268 274 307 310 319 349 356 346 330 333 350 7 12 0 352 349 348 349 354 350 353 351 352
181 196 198 181 166 171 182 194 194 203 207 195 195 207 231 241 234 239 243 265 265 250 224 302 322 324 321 351 344 329 346 6 350 10 21 5 359 351 349 353 354 350 350 353
174 165 164 169 176 183 194 194 197 213 211 196 203 223 236 244 225 217 247 271 282 210 229 287 325 327 335 347 357 7 14 11 6 358 347 11 9 357 354 350 344 347 351 350
160 164 171 176 184 201 209 206 213 222 212 212 220 226 230 235 227 233 240 245 255 198 218 277 308 314 311 351 35 35 26 19 12 6 0 345 14 7 359 354 349 346 352 349
172 180 184 190 203 216 218 222 225 221 226 225 224 223 224 230 220 222 253 239 215 205 214 243 263 325 4 51 57 48 25 18 16 13 13 20 10 8 3 358 349 344 348 348
172 181 194 197 186 203 230 236 229 231 235 238 235 228 221 234 243 235 228 198 191 194 216 214 220 211 154 51 331 334 358 11 13 15 8 5 4 360 357 350 356 346 342 341
189 188 188 189 204 225 234 239 238 243 242 248 246 232 222 215 223 234 207 204 190 197 215 214 219 214 244 299 325 308 23 8 10 12 7 1 356 357 357 354 356 351 346 341
187 198 203 206 220 227 231 216 236 252 250 265 265 233 218 208 209 207 191 184 187 195 209 202 182 134 90 43 11 126 68 50 22 12 8 4 0 359 355 351 347 345 342 338
190 188 192 209 219 206 200 207 224 259 243 243 257 226 212 186 191 188 182 185 193 202 200 183 154 130 146 118 140 117 117 84 28 8 3 355 354 348 346 342 339 339 338 339